,,Stat5,,Stat1,,Stat2,,Stat3,,Stat4,,Wind1,,Wind1,
time,status,PA1M_AVG,status,PR1M_SUM,status,RH1M_AVG,status,SR1M_AVG,status,TA1M_AVG,status,W1dAve1m,status,W1sAve1m,
2002-06-07, 00:00:00,VALID,916.776,VALID,0,VALID,98.6346,VALID,-0.0509425,VALID,21.1868,VALID,22,VALID,0.00078125,
2002-06-07, 00:01:00,VALID,916.751,VALID,0,VALID,98.6346,VALID,-0.0509425,VALID,21.1903,VALID,22,VALID,0.0453559,
2002-06-07, 00:02:00,VALID,916.727,VALID,0,VALID,98.6396,VALID,-0.0169808,VALID,21.1806,VALID,22,VALID,0,
2002-06-07, 00:03:00,VALID,916.727,VALID,0,VALID,98.6663,VALID,-0.0679233,VALID,21.1809,VALID,22,VALID,0.158008,
2002-06-07, 00:04:00,VALID,916.716,VALID,0,VALID,98.6943,VALID,-0.0679233,VALID,21.1868,VALID,25,VALID,0.345644,
2002-06-07, 00:05:00,VALID,916.712,VALID,0,VALID,98.6981,VALID,-0.0679233,VALID,21.1806,VALID,29,VALID,0.178795,
2002-06-07, 00:06:00,VALID,916.716,VALID,0,VALID,98.7261,VALID,-0.0679233,VALID,21.1871,VALID,29,VALID,0,
2002-06-07, 00:07:00,VALID,916.737,VALID,0,VALID,98.7465,VALID,-0.0509425,VALID,21.2003,VALID,29,VALID,0.148438,
2002-06-07, 00:08:00,VALID,916.765,VALID,0,VALID,98.7465,VALID,-0.0679233,VALID,21.2,VALID,29,VALID,0.467831,
2002-06-07, 00:09:00,VALID,916.791,VALID,0,VALID,98.7261,VALID,-0.0679233,VALID,21.1973,VALID,29,VALID,0.638477,
2002-06-07, 00:10:00,VALID,916.818,VALID,0,VALID,98.7019,VALID,0,VALID,21.1599,VALID,29,VALID,0.671875,
2002-06-07, 00:11:00,VALID,916.817,VALID,0,VALID,98.6981,VALID,0.0339617,VALID,21.1435,VALID,29,VALID,0.445759,
2002-06-07, 00:12:00,VALID,916.837,VALID,0,VALID,98.7134,VALID,0.0169808,VALID,21.1373,VALID,29,VALID,0.388086,
2002-06-07, 00:13:00,VALID,916.833,VALID,0,VALID,98.7337,VALID,0.0339617,VALID,21.1413,VALID,29,VALID,0.0776786,
2002-06-07, 00:14:00,VALID,916.84,VALID,0,VALID,98.735,VALID,0.0339617,VALID,21.1311,VALID,29,VALID,0.0105699,
2002-06-07, 00:15:00,VALID,916.845,VALID,0,VALID,98.7503,VALID,0.0169808,VALID,21.1338,VALID,24,VALID,0.339453,
2002-06-07, 00:16:00,VALID,916.866,VALID,0,VALID,98.7744,VALID,0.0679233,VALID,21.157,VALID,17,VALID,0.339962,
2002-06-07, 00:17:00,VALID,916.863,VALID,0,VALID,98.7681,VALID,0.0169808,VALID,21.1268,VALID,4,VALID,0.480134,
2002-06-07, 00:18:00,VALID,916.863,VALID,0,VALID,98.7833,VALID,0.0339617,VALID,21.1467,VALID,352,VALID,0.585352,
2002-06-07, 00:19:00,VALID,916.858,VALID,0,VALID,98.7859,VALID,0.0169808,VALID,21.1435,VALID,3,VALID,0.787054,
2002-06-07, 00:20:00,VALID,916.849,VALID,0,VALID,98.7719,VALID,0.0339617,VALID,21.1537,VALID,4,VALID,0.801471,
2002-06-07, 00:21:00,VALID,916.836,VALID,0,VALID,98.777,VALID,0.0509425,VALID,21.1403,VALID,1,VALID,0.655273,
2002-06-07, 00:22:00,VALID,916.816,VALID,0,VALID,98.7757,VALID,0,VALID,21.1338,VALID,359,VALID,0.570549,
2002-06-07, 00:23:00,VALID,916.812,VALID,0,VALID,98.7744,VALID,0.0509425,VALID,21.1376,VALID,7,VALID,0.451116,
2002-06-07, 00:24:00,VALID,916.806,VALID,0,VALID,98.7554,VALID,0.0169808,VALID,21.1249,VALID,7,VALID,0.272461,
2002-06-07, 00:25:00,VALID,916.791,VALID,0,VALID,98.7579,VALID,-0.0339617,VALID,21.1033,VALID,7,VALID,0.374107,
2002-06-07, 00:26:00,VALID,916.782,VALID,0,VALID,98.777,VALID,-0.101885,VALID,21.1063,VALID,7,VALID,0.178309,
2002-06-07, 00:27:00,VALID,916.777,VALID,0,VALID,98.7821,VALID,-0.0679233,VALID,21.1066,VALID,7,VALID,0.366602,
2002-06-07, 00:28:00,VALID,916.776,VALID,0,VALID,98.7757,VALID,-0.0679233,VALID,21.1203,VALID,7,VALID,0.481771,
2002-06-07, 00:29:00,VALID,916.763,VALID,0,VALID,98.7973,VALID,-0.0509425,VALID,21.1262,VALID,7,VALID,0.0366071,
2002-06-07, 00:30:00,VALID,916.743,VALID,0,VALID,98.8062,VALID,-0.0509425,VALID,21.1257,VALID,7,VALID,0,
2002-06-07, 00:31:00,VALID,916.719,VALID,0,VALID,98.7999,VALID,-0.0339617,VALID,21.1489,VALID,7,VALID,0,
2002-06-07, 00:32:00,VALID,916.681,VALID,0,VALID,98.8202,VALID,-0.0849042,VALID,21.1578,VALID,7,VALID,0.00735294,
2002-06-07, 00:33:00,VALID,916.668,VALID,0,VALID,98.8253,VALID,-0.0849042,VALID,21.1909,VALID,325,VALID,0.315234,
2002-06-07, 00:34:00,VALID,916.65,VALID,0,VALID,98.7999,VALID,-0.0339617,VALID,21.1709,VALID,261,VALID,0.598485,
2002-06-07, 00:35:00,VALID,916.64,VALID,0,VALID,98.8088,VALID,-0.0679233,VALID,21.1771,VALID,247,VALID,0.686384,
2002-06-07, 00:36:00,VALID,916.624,VALID,0,VALID,98.8024,VALID,-0.0849042,VALID,21.1774,VALID,228,VALID,0.627148,
2002-06-07, 00:37:00,VALID,916.618,VALID,0,VALID,98.7859,VALID,-0.0509425,VALID,21.1709,VALID,224,VALID,0.334152,
2002-06-07, 00:38:00,VALID,916.623,VALID,0,VALID,98.7795,VALID,-0.0509425,VALID,21.168,VALID,227,VALID,0.0431985,
2002-06-07, 00:39:00,VALID,916.627,VALID,0,VALID,98.7821,VALID,-0.0339617,VALID,21.1615,VALID,226,VALID,0.108203,
2002-06-07, 00:40:00,VALID,916.62,VALID,0,VALID,98.7922,VALID,-0.0509425,VALID,21.1677,VALID,226,VALID,0.224905,
2002-06-07, 00:41:00,VALID,916.576,VALID,0,VALID,98.7986,VALID,-0.0849042,VALID,21.165,VALID,227,VALID,0.220313,
2002-06-07, 00:42:00,VALID,916.566,VALID,0,VALID,98.796,VALID,-0.0339617,VALID,21.1451,VALID,236,VALID,0.555469,
2002-06-07, 00:43:00,VALID,916.547,VALID,0,VALID,98.8049,VALID,-0.0849042,VALID,21.1518,VALID,239,VALID,0.424777,
2002-06-07, 00:44:00,VALID,916.509,VALID,0,VALID,98.8151,VALID,-0.0679233,VALID,21.1513,VALID,243,VALID,0.205423,
2002-06-07, 00:45:00,VALID,916.484,VALID,0,VALID,98.8304,VALID,0,VALID,21.1612,VALID,357,VALID,0.404492,
2002-06-07, 00:46:00,VALID,916.482,VALID,0,VALID,98.8367,VALID,-0.0169808,VALID,21.168,VALID,17,VALID,0.511127,
2002-06-07, 00:47:00,VALID,916.468,VALID,0,VALID,98.8418,VALID,-0.0509425,VALID,21.1612,VALID,3,VALID,0.408929,
2002-06-07, 00:48:00,VALID,916.438,VALID,0,VALID,98.7973,VALID,-0.0509425,VALID,21.1125,VALID,263,VALID,0.424023,
2002-06-07, 00:49:00,VALID,916.438,VALID,0,VALID,98.8075,VALID,-0.0849042,VALID,21.1163,VALID,237,VALID,0.513616,
2002-06-07, 00:50:00,VALID,916.427,VALID,0,VALID,98.8215,VALID,-0.0169808,VALID,21.1257,VALID,228,VALID,0.576287,
2002-06-07, 00:51:00,VALID,916.421,VALID,0,VALID,98.8342,VALID,-0.0169808,VALID,21.1354,VALID,225,VALID,0.0626953,
2002-06-07, 00:52:00,VALID,916.403,VALID,0,VALID,98.8584,VALID,-0.0849042,VALID,21.1454,VALID,251,VALID,0.085464,
2002-06-07, 00:53:00,VALID,916.385,VALID,0,VALID,98.8609,VALID,-0.0679233,VALID,21.1384,VALID,18,VALID,0.781473,
2002-06-07, 00:54:00,VALID,916.387,VALID,0,VALID,98.8444,VALID,-0.0169808,VALID,21.1254,VALID,19,VALID,0.750781,
2002-06-07, 00:55:00,VALID,916.397,VALID,0,VALID,98.8406,VALID,-0.0509425,VALID,21.1187,VALID,18,VALID,0.565402,
2002-06-07, 00:56:00,VALID,916.384,VALID,0,VALID,98.8431,VALID,-0.0679233,VALID,21.119,VALID,18,VALID,0.533548,
2002-06-07, 00:57:00,VALID,916.391,VALID,0,VALID,98.8584,VALID,-0.0169808,VALID,21.1254,VALID,18,VALID,0.443555,
2002-06-07, 00:58:00,VALID,916.394,VALID,0,VALID,98.8685,VALID,-0.0169808,VALID,21.1357,VALID,18,VALID,0.331913,
2002-06-07, 00:59:00,VALID,916.408,VALID,0,VALID,98.8825,VALID,-0.0339617,VALID,21.1612,VALID,18,VALID,0.158259,
2002-06-07, 01:00:00,VALID,916.423,VALID,0,VALID,98.9067,VALID,-0.0509425,VALID,21.1769,VALID,18,VALID,0.103906,
2002-06-07, 01:01:00,VALID,916.441,VALID,0,VALID,98.9079,VALID,-0.0509425,VALID,21.1933,VALID,21,VALID,0.604688,
2002-06-07, 01:02:00,VALID,916.461,VALID,0,VALID,98.9207,VALID,-0.0509425,VALID,21.213,VALID,22,VALID,0.77091,
2002-06-07, 01:03:00,VALID,916.448,VALID,0,VALID,98.9296,VALID,-0.0509425,VALID,21.2259,VALID,12,VALID,0.56543,
2002-06-07, 01:04:00,VALID,916.436,VALID,0,VALID,98.9105,VALID,-0.0679233,VALID,21.2226,VALID,7,VALID,0.56392,
2002-06-07, 01:05:00,VALID,916.429,VALID,0,VALID,98.8978,VALID,-0.0509425,VALID,21.2197,VALID,12,VALID,0.279464,
2002-06-07, 01:06:00,VALID,916.41,VALID,0,VALID,98.8876,VALID,-0.0849042,VALID,21.2,VALID,5,VALID,0.47207,
2002-06-07, 01:07:00,VALID,916.394,VALID,0,VALID,98.8889,VALID,-0.0169808,VALID,21.2127,VALID,357,VALID,0.439286,
2002-06-07, 01:08:00,VALID,916.38,VALID,0,VALID,98.8876,VALID,-0.0679233,VALID,21.213,VALID,5,VALID,0.350414,
2002-06-07, 01:09:00,VALID,916.376,VALID,0,VALID,98.8978,VALID,-0.0679233,VALID,21.2191,VALID,14,VALID,0.496875,
2002-06-07, 01:10:00,VALID,916.37,VALID,0,VALID,98.8978,VALID,-0.0339617,VALID,21.2488,VALID,20,VALID,0.693892,
2002-06-07, 01:11:00,VALID,916.36,VALID,0,VALID,98.8965,VALID,-0.0169808,VALID,21.2579,VALID,21,VALID,1.22768,
2002-06-07, 01:12:00,VALID,916.353,VALID,0,VALID,98.8901,VALID,-0.0849042,VALID,21.2515,VALID,352,VALID,0.635352,
2002-06-07, 01:13:00,VALID,916.338,VALID,0,VALID,98.8749,VALID,-0.0169808,VALID,21.242,VALID,13,VALID,1.15179,
2002-06-07, 01:14:00,VALID,916.315,VALID,0,VALID,98.8749,VALID,-0.0169808,VALID,21.2159,VALID,347,VALID,0.712546,
2002-06-07, 01:15:00,VALID,916.326,VALID,0,VALID,98.8673,VALID,-0.0849042,VALID,21.213,VALID,341,VALID,0.539453,
2002-06-07, 01:16:00,VALID,916.309,VALID,0,VALID,98.8673,VALID,-0.0509425,VALID,21.2194,VALID,9,VALID,0.595881,
2002-06-07, 01:17:00,VALID,916.296,VALID,0,VALID,98.8711,VALID,-0.0679233,VALID,21.2033,VALID,340,VALID,0.310547,
2002-06-07, 01:18:00,VALID,916.296,VALID,0,VALID,98.8825,VALID,-0.0509425,VALID,21.1965,VALID,316,VALID,0.18418,
2002-06-07, 01:19:00,VALID,916.276,VALID,0,VALID,98.8812,VALID,-0.0339617,VALID,21.2095,VALID,331,VALID,0.370089,
2002-06-07, 01:20:00,VALID,916.252,VALID,0,VALID,98.8863,VALID,-0.0509425,VALID,21.1971,VALID,337,VALID,0.776654,
2002-06-07, 01:21:00,VALID,916.252,VALID,0,VALID,98.8787,VALID,-0.0169808,VALID,21.1801,VALID,335,VALID,0.360742,
2002-06-07, 01:22:00,VALID,916.234,VALID,0,VALID,98.8825,VALID,-0.0169808,VALID,21.1903,VALID,335,VALID,0,
2002-06-07, 01:23:00,VALID,916.216,VALID,0,VALID,98.894,VALID,0,VALID,21.1833,VALID,343,VALID,0.143527,
2002-06-07, 01:24:00,VALID,916.211,VALID,0,VALID,98.899,VALID,-0.0169808,VALID,21.1901,VALID,14,VALID,0.542578,
2002-06-07, 01:25:00,VALID,916.18,VALID,0,VALID,98.9105,VALID,0,VALID,21.1998,VALID,9,VALID,0.667411,
2002-06-07, 01:26:00,VALID,916.165,VALID,0,VALID,98.9207,VALID,-0.0339617,VALID,21.2229,VALID,7,VALID,0.900506,
2002-06-07, 01:27:00,VALID,916.138,VALID,0,VALID,98.913,VALID,-0.0339617,VALID,21.1928,VALID,2,VALID,0.778125,
2002-06-07, 01:28:00,VALID,916.106,VALID,0,VALID,98.9156,VALID,-0.0339617,VALID,21.2159,VALID,30,VALID,0.539063,
2002-06-07, 01:29:00,VALID,916.097,VALID,0,VALID,98.913,VALID,-0.0339617,VALID,21.206,VALID,29,VALID,0.402902,
2002-06-07, 01:30:00,VALID,916.089,VALID,0,VALID,98.9258,VALID,-0.0679233,VALID,21.2259,VALID,29,VALID,0.185352,
2002-06-07, 01:31:00,VALID,916.074,VALID,0,VALID,98.9258,VALID,-0.0169808,VALID,21.2189,VALID,29,VALID,0,
2002-06-07, 01:32:00,VALID,916.047,VALID,0,VALID,98.9168,VALID,-0.0509425,VALID,21.2329,VALID,29,VALID,0.402574,
2002-06-07, 01:33:00,VALID,916.026,VALID,0,VALID,98.9219,VALID,0,VALID,21.2089,VALID,21,VALID,0.572852,
2002-06-07, 01:34:00,VALID,915.985,VALID,0,VALID,98.9219,VALID,-0.0169808,VALID,21.2159,VALID,337,VALID,0.663826,
2002-06-07, 01:35:00,VALID,915.956,VALID,0,VALID,98.9054,VALID,-0.0339617,VALID,21.1866,VALID,336,VALID,0.419196,
2002-06-07, 01:36:00,VALID,915.928,VALID,0,VALID,98.9194,VALID,-0.0339617,VALID,21.1998,VALID,358,VALID,0.325781,
2002-06-07, 01:37:00,VALID,915.921,VALID,0,VALID,98.9258,VALID,-0.0509425,VALID,21.2194,VALID,3,VALID,0.259598,
2002-06-07, 01:38:00,VALID,915.893,VALID,0,VALID,98.9283,VALID,-0.0169808,VALID,21.2095,VALID,339,VALID,0.144301,
2002-06-07, 01:39:00,VALID,915.881,VALID,0,VALID,98.9143,VALID,-0.0339617,VALID,21.1672,VALID,290,VALID,0.378906,
2002-06-07, 01:40:00,VALID,915.852,VALID,0,VALID,98.8927,VALID,-0.0339617,VALID,21.1381,VALID,284,VALID,0.50071,
2002-06-07, 01:41:00,VALID,915.832,VALID,0,VALID,98.9118,VALID,-0.0679233,VALID,21.1483,VALID,305,VALID,0.0830357,
2002-06-07, 01:42:00,VALID,915.814,VALID,0,VALID,98.9067,VALID,-0.0509425,VALID,21.1516,VALID,305,VALID,0.000976563,
2002-06-07, 01:43:00,VALID,915.805,VALID,0,VALID,98.9156,VALID,-0.0849042,VALID,21.1384,VALID,305,VALID,0,
2002-06-07, 01:44:00,VALID,915.805,VALID,0,VALID,98.9143,VALID,-0.0339617,VALID,21.1381,VALID,305,VALID,0,
2002-06-07, 01:45:00,VALID,915.793,VALID,0,VALID,98.9079,VALID,-0.0169808,VALID,21.1413,VALID,305,VALID,0,
2002-06-07, 01:46:00,VALID,915.773,VALID,0,VALID,98.9016,VALID,-0.0169808,VALID,21.1454,VALID,305,VALID,0.0390625,
2002-06-07, 01:47:00,VALID,915.761,VALID,0,VALID,98.9016,VALID,-0.0509425,VALID,21.1518,VALID,305,VALID,0.1,
2002-06-07, 01:48:00,VALID,915.759,VALID,0,VALID,98.9207,VALID,-0.0509425,VALID,21.1712,VALID,305,VALID,0,
2002-06-07, 01:49:00,VALID,915.747,VALID,0,VALID,98.9232,VALID,-0.0509425,VALID,21.1774,VALID,321,VALID,0.204688,
2002-06-07, 01:50:00,VALID,915.738,VALID,0,VALID,98.9181,VALID,-0.0679233,VALID,21.1938,VALID,354,VALID,0.399357,
2002-06-07, 01:51:00,VALID,915.73,VALID,0,VALID,98.9181,VALID,-0.0169808,VALID,21.1806,VALID,10,VALID,0.30918,
2002-06-07, 01:52:00,VALID,915.703,VALID,0,VALID,98.9118,VALID,-0.0169808,VALID,21.1744,VALID,9,VALID,0.245975,
2002-06-07, 01:53:00,VALID,915.688,VALID,0,VALID,98.8978,VALID,-0.0509425,VALID,21.1717,VALID,9,VALID,0.00535714,
2002-06-07, 01:54:00,VALID,915.658,VALID,0,VALID,98.9105,VALID,-0.0509425,VALID,21.1478,VALID,9,VALID,0,
2002-06-07, 01:55:00,VALID,915.656,VALID,0,VALID,98.9041,VALID,0.0169808,VALID,21.1607,VALID,9,VALID,0.00111607,
2002-06-07, 01:56:00,VALID,915.661,VALID,0,VALID,98.8927,VALID,0.0679233,VALID,21.1438,VALID,9,VALID,0,
2002-06-07, 01:57:00,VALID,915.659,VALID,0,VALID,98.8927,VALID,0.0679233,VALID,21.1338,VALID,9,VALID,0,
2002-06-07, 01:58:00,VALID,915.648,VALID,0,VALID,98.8863,VALID,0.0169808,VALID,21.1408,VALID,9,VALID,0,
2002-06-07, 01:59:00,VALID,915.641,VALID,0,VALID,98.8787,VALID,0.0509425,VALID,21.1209,VALID,12,VALID,0.214286,
2002-06-07, 02:00:00,VALID,915.634,VALID,0,VALID,98.88,VALID,0.0339617,VALID,21.1149,VALID,17,VALID,0.346289,
2002-06-07, 02:01:00,VALID,915.636,VALID,0,VALID,98.866,VALID,0.0509425,VALID,21.0918,VALID,17,VALID,0.25625,
2002-06-07, 02:02:00,VALID,915.64,VALID,0,VALID,98.8584,VALID,0.0509425,VALID,21.0886,VALID,16,VALID,0.588695,
2002-06-07, 02:03:00,VALID,915.635,VALID,0,VALID,98.8571,VALID,0.0679233,VALID,21.0751,VALID,20,VALID,0.650977,
2002-06-07, 02:04:00,VALID,915.632,VALID,0,VALID,98.8545,VALID,0.0679233,VALID,21.0622,VALID,27,VALID,0.773438,
2002-06-07, 02:05:00,VALID,915.632,VALID,0,VALID,98.8533,VALID,0.0509425,VALID,21.07,VALID,22,VALID,0.708482,
2002-06-07, 02:06:00,VALID,915.632,VALID,0,VALID,98.8634,VALID,0.0339617,VALID,21.0635,VALID,22,VALID,0.407422,
2002-06-07, 02:07:00,VALID,915.63,VALID,0,VALID,98.8622,VALID,0.0509425,VALID,21.063,VALID,30,VALID,0.39308,
2002-06-07, 02:08:00,VALID,915.632,VALID,0,VALID,98.8609,VALID,0.0509425,VALID,21.056,VALID,39,VALID,0.321232,
2002-06-07, 02:09:00,VALID,915.62,VALID,0,VALID,98.8494,VALID,0.0849042,VALID,21.0433,VALID,44,VALID,0.331445,
2002-06-07, 02:10:00,VALID,915.638,VALID,0,VALID,98.8647,VALID,-0.0169808,VALID,21.0449,VALID,44,VALID,0.191525,
2002-06-07, 02:11:00,VALID,915.646,VALID,0,VALID,98.8736,VALID,-0.0679233,VALID,21.0449,VALID,44,VALID,0.371875,
2002-06-07, 02:12:00,VALID,915.649,VALID,0,VALID,98.8749,VALID,-0.101885,VALID,21.0678,VALID,44,VALID,0.454883,
2002-06-07, 02:13:00,VALID,915.664,VALID,0,VALID,98.8838,VALID,-0.0679233,VALID,21.0648,VALID,41,VALID,0.51183,
2002-06-07, 02:14:00,VALID,915.682,VALID,0,VALID,98.8901,VALID,-0.0509425,VALID,21.0675,VALID,26,VALID,0.461397,
2002-06-07, 02:15:00,VALID,915.689,VALID,0,VALID,98.9041,VALID,-0.0849042,VALID,21.0939,VALID,24,VALID,0.349805,
2002-06-07, 02:16:00,VALID,915.691,VALID,0,VALID,98.913,VALID,-0.0849042,VALID,21.1068,VALID,9,VALID,0.409328,
2002-06-07, 02:17:00,VALID,915.687,VALID,0,VALID,98.9079,VALID,-0.0509425,VALID,21.1066,VALID,11,VALID,0.590179,
2002-06-07, 02:18:00,VALID,915.677,VALID,0,VALID,98.8863,VALID,-0.0509425,VALID,21.1063,VALID,360,VALID,0.550977,
2002-06-07, 02:19:00,VALID,915.664,VALID,0,VALID,98.8889,VALID,-0.0509425,VALID,21.1128,VALID,22,VALID,0.589509,
2002-06-07, 02:20:00,VALID,915.652,VALID,0,VALID,98.8774,VALID,-0.0849042,VALID,21.1063,VALID,346,VALID,0.298024,
2002-06-07, 02:21:00,VALID,915.638,VALID,0,VALID,98.8711,VALID,-0.0339617,VALID,21.1165,VALID,343,VALID,0.411328,
2002-06-07, 02:22:00,VALID,915.639,VALID,0,VALID,98.8685,VALID,-0.0339617,VALID,21.0904,VALID,353,VALID,0.800663,
2002-06-07, 02:23:00,VALID,915.627,VALID,0,VALID,98.866,VALID,-0.0339617,VALID,21.0902,VALID,9,VALID,0.627679,
2002-06-07, 02:24:00,VALID,915.638,VALID,0,VALID,98.8685,VALID,-0.0849042,VALID,21.0832,VALID,9,VALID,0.27832,
2002-06-07, 02:25:00,VALID,915.649,VALID,0,VALID,98.8647,VALID,-0.0849042,VALID,21.1068,VALID,24,VALID,0.546875,
2002-06-07, 02:26:00,VALID,915.647,VALID,0,VALID,98.8673,VALID,-0.0339617,VALID,21.106,VALID,22,VALID,0.322151,
2002-06-07, 02:27:00,VALID,915.651,VALID,0,VALID,98.8838,VALID,-0.0339617,VALID,21.1187,VALID,21,VALID,0.301562,
2002-06-07, 02:28:00,VALID,915.662,VALID,0,VALID,98.8889,VALID,-0.0509425,VALID,21.1416,VALID,19,VALID,0.54143,
2002-06-07, 02:29:00,VALID,915.659,VALID,0,VALID,98.8965,VALID,-0.0339617,VALID,21.1545,VALID,19,VALID,0.746205,
2002-06-07, 02:30:00,VALID,915.659,VALID,0,VALID,98.8901,VALID,-0.0169808,VALID,21.151,VALID,22,VALID,0.558594,
2002-06-07, 02:31:00,VALID,915.659,VALID,0,VALID,98.8965,VALID,-0.0509425,VALID,21.1839,VALID,19,VALID,0.397321,
2002-06-07, 02:32:00,VALID,915.651,VALID,0,VALID,98.8851,VALID,-0.0339617,VALID,21.1707,VALID,21,VALID,0.412454,
2002-06-07, 02:33:00,VALID,915.645,VALID,0,VALID,98.8838,VALID,-0.0849042,VALID,21.1871,VALID,22,VALID,0.124609,
2002-06-07, 02:34:00,VALID,915.632,VALID,0,VALID,98.8711,VALID,-0.0339617,VALID,21.1874,VALID,29,VALID,0.362689,
2002-06-07, 02:35:00,VALID,915.615,VALID,0,VALID,98.8558,VALID,-0.0679233,VALID,21.1543,VALID,19,VALID,0.352009,
2002-06-07, 02:36:00,VALID,915.613,VALID,0,VALID,98.8418,VALID,-0.0509425,VALID,21.175,VALID,19,VALID,0.0251953,
2002-06-07, 02:37:00,VALID,915.612,VALID,0,VALID,98.8507,VALID,-0.0509425,VALID,21.1682,VALID,19,VALID,0.112277,
2002-06-07, 02:38:00,VALID,915.602,VALID,0,VALID,98.8469,VALID,-0.0339617,VALID,21.1513,VALID,19,VALID,0.131204,
2002-06-07, 02:39:00,VALID,915.589,VALID,0,VALID,98.8444,VALID,-0.0339617,VALID,21.1647,VALID,19,VALID,0,
2002-06-07, 02:40:00,VALID,915.589,VALID,0,VALID,98.838,VALID,-0.0339617,VALID,21.1583,VALID,19,VALID,0.00118371,
2002-06-07, 02:41:00,VALID,915.592,VALID,0,VALID,98.8329,VALID,-0.0509425,VALID,21.1381,VALID,14,VALID,0.167634,
2002-06-07, 02:42:00,VALID,915.574,VALID,0,VALID,98.8227,VALID,-0.0849042,VALID,21.1192,VALID,351,VALID,0.216992,
2002-06-07, 02:43:00,VALID,915.56,VALID,0,VALID,98.7948,VALID,-0.0509425,VALID,21.1095,VALID,257,VALID,0.364732,
2002-06-07, 02:44:00,VALID,915.53,VALID,0,VALID,98.8011,VALID,-0.0339617,VALID,21.0999,VALID,254,VALID,0.0859375,
2002-06-07, 02:45:00,VALID,915.531,VALID,0,VALID,98.7986,VALID,-0.0509425,VALID,21.0872,VALID,254,VALID,0.0585938,
2002-06-07, 02:46:00,VALID,915.535,VALID,0,VALID,98.8291,VALID,-0.0679233,VALID,21.0896,VALID,318,VALID,0.345407,
2002-06-07, 02:47:00,VALID,915.536,VALID,0,VALID,98.8431,VALID,-0.0339617,VALID,21.109,VALID,11,VALID,0.401339,
2002-06-07, 02:48:00,VALID,915.544,VALID,0,VALID,98.8316,VALID,-0.0679233,VALID,21.1165,VALID,34,VALID,0.519141,
2002-06-07, 02:49:00,VALID,915.539,VALID,0,VALID,98.8278,VALID,-0.0339617,VALID,21.1133,VALID,33,VALID,0.264732,
2002-06-07, 02:50:00,VALID,915.535,VALID,0,VALID,98.8406,VALID,-0.0509425,VALID,21.1128,VALID,33,VALID,0.115809,
2002-06-07, 02:51:00,VALID,915.514,VALID,0,VALID,98.8367,VALID,-0.0509425,VALID,21.1095,VALID,33,VALID,0.00234375,
2002-06-07, 02:52:00,VALID,915.485,VALID,0,VALID,98.8316,VALID,-0.0849042,VALID,21.1165,VALID,33,VALID,0.00118371,
2002-06-07, 02:53:00,VALID,915.456,VALID,0,VALID,98.8177,VALID,-0.0339617,VALID,21.0837,VALID,33,VALID,0,
2002-06-07, 02:54:00,VALID,915.424,VALID,0,VALID,98.8011,VALID,-0.0509425,VALID,21.0772,VALID,33,VALID,0.000976563,
2002-06-07, 02:55:00,VALID,915.395,VALID,0,VALID,98.8113,VALID,-0.101885,VALID,21.0708,VALID,33,VALID,0,
2002-06-07, 02:56:00,VALID,915.392,VALID,0,VALID,98.81,VALID,-0.0679233,VALID,21.0778,VALID,33,VALID,0,
2002-06-07, 02:57:00,VALID,915.382,VALID,0,VALID,98.8151,VALID,-0.0509425,VALID,21.0702,VALID,33,VALID,0,
2002-06-07, 02:58:00,VALID,915.361,VALID,0,VALID,98.8139,VALID,-0.0509425,VALID,21.0813,VALID,33,VALID,0,
2002-06-07, 02:59:00,VALID,915.348,VALID,0,VALID,98.8088,VALID,-0.0679233,VALID,21.0673,VALID,33,VALID,0.0625,
2002-06-07, 03:00:00,VALID,915.337,VALID,0,VALID,98.8113,VALID,-0.0849042,VALID,21.0573,VALID,33,VALID,0.157422,
2002-06-07, 03:01:00,VALID,915.314,VALID,0,VALID,98.791,VALID,-0.0849042,VALID,21.0646,VALID,310,VALID,0.339063,
2002-06-07, 03:02:00,VALID,915.31,VALID,0,VALID,98.7897,VALID,-0.101885,VALID,21.0385,VALID,251,VALID,0.329044,
2002-06-07, 03:03:00,VALID,915.315,VALID,0,VALID,98.7808,VALID,-0.0849042,VALID,21.0425,VALID,251,VALID,0.0755859,
2002-06-07, 03:04:00,VALID,915.302,VALID,0,VALID,98.7782,VALID,-0.0679233,VALID,21.032,VALID,251,VALID,0,
2002-06-07, 03:05:00,VALID,915.296,VALID,0,VALID,98.7884,VALID,-0.0679233,VALID,21.0255,VALID,251,VALID,0,
2002-06-07, 03:06:00,VALID,915.282,VALID,0,VALID,98.796,VALID,-0.0679233,VALID,21.0253,VALID,251,VALID,0,
2002-06-07, 03:07:00,VALID,915.264,VALID,0,VALID,98.8202,VALID,-0.0509425,VALID,21.0484,VALID,252,VALID,0.179911,
2002-06-07, 03:08:00,VALID,915.26,VALID,0,VALID,98.8266,VALID,-0.0509425,VALID,21.081,VALID,360,VALID,0.338695,
2002-06-07, 03:09:00,VALID,915.234,VALID,0,VALID,98.8431,VALID,-0.0509425,VALID,21.0837,VALID,5,VALID,0.407813,
2002-06-07, 03:10:00,VALID,915.22,VALID,0,VALID,98.8266,VALID,-0.0169808,VALID,21.0991,VALID,21,VALID,0.551373,
2002-06-07, 03:11:00,VALID,915.222,VALID,0,VALID,98.824,VALID,0.0339617,VALID,21.0948,VALID,24,VALID,0.655804,
2002-06-07, 03:12:00,VALID,915.231,VALID,0,VALID,98.7999,VALID,0.0339617,VALID,21.0689,VALID,27,VALID,0.801172,
2002-06-07, 03:13:00,VALID,915.217,VALID,0,VALID,98.7617,VALID,0.0339617,VALID,21.0463,VALID,27,VALID,0.555134,
2002-06-07, 03:14:00,VALID,915.216,VALID,0,VALID,98.7617,VALID,0.0339617,VALID,21.0398,VALID,25,VALID,0.477252,
2002-06-07, 03:15:00,VALID,915.218,VALID,0,VALID,98.7668,VALID,0.0169808,VALID,21.0468,VALID,24,VALID,0.245898,
2002-06-07, 03:16:00,VALID,915.222,VALID,0,VALID,98.7833,VALID,0.0339617,VALID,21.0463,VALID,24,VALID,0.306345,
2002-06-07, 03:17:00,VALID,915.222,VALID,0,VALID,98.7884,VALID,0.0509425,VALID,21.0466,VALID,24,VALID,0.205357,
2002-06-07, 03:18:00,VALID,915.213,VALID,0,VALID,98.8049,VALID,0.0339617,VALID,21.063,VALID,22,VALID,0.000585938,
2002-06-07, 03:19:00,VALID,915.217,VALID,0,VALID,98.7948,VALID,0.0509425,VALID,21.0662,VALID,356,VALID,0.0488839,
2002-06-07, 03:20:00,VALID,915.207,VALID,0,VALID,98.7477,VALID,0.0339617,VALID,21.0466,VALID,265,VALID,0.393842,
2002-06-07, 03:21:00,VALID,915.194,VALID,0,VALID,98.7515,VALID,0.0509425,VALID,21.0401,VALID,269,VALID,0.103711,
2002-06-07, 03:22:00,VALID,915.181,VALID,0,VALID,98.7757,VALID,0.0339617,VALID,21.0533,VALID,270,VALID,0.0738636,
2002-06-07, 03:23:00,VALID,915.174,VALID,0,VALID,98.7833,VALID,0.0679233,VALID,21.0662,VALID,271,VALID,0.0805804,
2002-06-07, 03:24:00,VALID,915.163,VALID,0,VALID,98.7821,VALID,0.0339617,VALID,21.063,VALID,32,VALID,0.425,
2002-06-07, 03:25:00,VALID,915.163,VALID,0,VALID,98.7935,VALID,0.0339617,VALID,21.0727,VALID,62,VALID,0.666964,
2002-06-07, 03:26:00,VALID,915.145,VALID,0,VALID,98.7795,VALID,0.0509425,VALID,21.0721,VALID,57,VALID,0.588465,
2002-06-07, 03:27:00,VALID,915.142,VALID,0,VALID,98.7477,VALID,0.0509425,VALID,21.0756,VALID,57,VALID,0.384961,
2002-06-07, 03:28:00,VALID,915.132,VALID,0,VALID,98.7147,VALID,0.0339617,VALID,21.0659,VALID,71,VALID,0.411932,
2002-06-07, 03:29:00,VALID,915.115,VALID,0,VALID,98.7007,VALID,0.0509425,VALID,21.0463,VALID,83,VALID,0.065625,
2002-06-07, 03:30:00,VALID,915.125,VALID,0,VALID,98.721,VALID,0.0169808,VALID,21.0565,VALID,83,VALID,0,